User: anonymous   Login
Location: Unspecified
(0.0000°N, 0.0000°E)
Time: 12:46:18
(UTC+00:00)
Language:

COSMOS 2452 - Orbit

View from above orbital plane
View from above orbital plane
View from above satellite
View from above satellite

Ground track
Ground track

The orbit data is extracted from the following two-line orbital elements,

1 35499U 09036B   17262.98429307  .00000010  00000-0  00000+0 0  9998
2 35499  82.4873 267.5164 0014257 262.9661  96.9801 12.42905170372327
Epoch (UTC): 19 September 2017 23:37:22
Eccentricity: 0.0014257
inclination: 82.4873°
perigee height: 1483 km
apogee height: 1505 km
right ascension of ascending node: 267.5164°
argument of perigee: 262.9661°
revolutions per day: 12.42905170
mean anomaly at epoch: 96.9801°
orbit number at epoch: 37232

The dashed part of the orbit path shows where the satellite is in the earth's shadow,  

DLR